International Skating Union - Official Site

ISU World Cup Speed Skating 2017-2018
November 17-19, 2017

Draw | Lap Times | Index | World Cup

Referee: Dan  IMMERFALL  (USA)
Starter: Sebastian  ZAMANI  (SWE)
StartTime: EndTime: Air Temp: Ice Temp: Humidity:
10:00 12:16 15.5℃ -6.6℃ 41%
Result 10000m Men Division B
Rankings as of Nov 19 2017 12:17PM
Rank: No.: Name: Nation: Time: Behind: Points:
1 43 Davide  Ghiotto ITA ITA 12:53.63400m - 35.42 - (35.4)
800m - 1:06.50 - (31.0)
1200m - 1:37.49 - (30.9)
1600m - 2:08.89 - (31.3)
2000m - 2:39.74 - (30.8)
2400m - 3:10.66 - (30.9)
2800m - 3:41.65 - (30.9)
3200m - 4:12.86 - (31.2)
3600m - 4:43.71 - (30.8)
4000m - 5:14.47 - (30.7)
4400m - 5:45.10 - (30.6)
4800m - 6:16.13 - (31.0)
5200m - 6:47.03 - (30.8)
5600m - 7:17.75 - (30.7)
6000m - 7:48.17 - (30.4)
6400m - 8:18.71 - (30.5)
6800m - 8:48.93 - (30.2)
7200m - 9:18.94 - (30.0)
7600m - 9:49.31 - (30.3)
8000m - 10:20.20 - (30.8)
8400m - 10:51.07 - (30.8)
8800m - 11:22.01 - (30.9)
9200m - 11:52.77 - (30.7)
9600m - 12:23.25 - (30.4)
10000m - 12:53.63 - (30.3)
32
2 80 Jouke  Hoogeveen NED NED 12:56.62400m - 36.77 - (36.7)
800m - 1:07.90 - (31.1)
1200m - 1:39.55 - (31.6)
1600m - 2:10.78 - (31.2)
2000m - 2:41.59 - (30.8)
2400m - 3:12.40 - (30.8)
2800m - 3:43.41 - (31.0)
3200m - 4:14.27 - (30.8)
3600m - 4:45.21 - (30.9)
4000m - 5:16.08 - (30.8)
4400m - 5:46.97 - (30.8)
4800m - 6:17.96 - (30.9)
5200m - 6:48.75 - (30.7)
5600m - 7:19.61 - (30.8)
6000m - 7:50.39 - (30.7)
6400m - 8:20.97 - (30.5)
6800m - 8:51.59 - (30.6)
7200m - 9:21.79 - (30.1)
7600m - 9:52.37 - (30.5)
8000m - 10:22.85 - (30.4)
8400m - 10:53.60 - (30.7)
8800m - 11:24.35 - (30.7)
9200m - 11:55.21 - (30.8)
9600m - 12:26.08 - (30.8)
10000m - 12:56.62 - (30.5)
2.99 27
3 129 Alexander  Rumyantsev RUS RUS 12:57.45400m - 35.70 - (35.7)
800m - 1:06.65 - (30.9)
1200m - 1:37.90 - (31.2)
1600m - 2:09.31 - (31.4)
2000m - 2:40.71 - (31.4)
2400m - 3:11.74 - (31.0)
2800m - 3:42.90 - (31.1)
3200m - 4:13.62 - (30.7)
3600m - 4:44.48 - (30.8)
4000m - 5:15.26 - (30.7)
4400m - 5:45.86 - (30.6)
4800m - 6:16.90 - (31.0)
5200m - 6:47.78 - (30.8)
5600m - 7:18.43 - (30.6)
6000m - 7:48.90 - (30.4)
6400m - 8:19.35 - (30.4)
6800m - 8:49.56 - (30.2)
7200m - 9:19.93 - (30.3)
7600m - 9:50.47 - (30.5)
8000m - 10:20.83 - (30.3)
8400m - 10:51.65 - (30.8)
8800m - 11:22.86 - (31.2)
9200m - 11:54.72 - (31.8)
9600m - 12:26.04 - (31.3)
10000m - 12:57.45 - (31.4)
3.82 23
4 44 Andrea  Giovannini ITA ITA 13:05.62400m - 35.14 - (35.1)
800m - 1:06.27 - (31.1)
1200m - 1:37.24 - (30.9)
1600m - 2:08.90 - (31.6)
2000m - 2:39.71 - (30.8)
2400m - 3:10.86 - (31.1)
2800m - 3:41.87 - (31.0)
3200m - 4:12.94 - (31.0)
3600m - 4:43.97 - (31.0)
4000m - 5:15.12 - (31.1)
4400m - 5:46.07 - (30.9)
4800m - 6:17.13 - (31.0)
5200m - 6:48.05 - (30.9)
5600m - 7:19.11 - (31.0)
6000m - 7:50.33 - (31.2)
6400m - 8:21.53 - (31.1)
6800m - 8:52.58 - (31.0)
7200m - 9:23.67 - (31.0)
7600m - 9:54.75 - (31.0)
8000m - 10:25.87 - (31.1)
8400m - 10:57.21 - (31.3)
8800m - 11:28.67 - (31.4)
9200m - 12:00.38 - (31.7)
9600m - 12:32.74 - (32.3)
10000m - 13:05.62 - (32.8)
11.99 19
5 74 Seung-Hoon  Lee KOR KOR 13:09.26400m - 35.44 - (35.4)
800m - 1:06.65 - (31.2)
1200m - 1:38.27 - (31.6)
1600m - 2:10.13 - (31.8)
2000m - 2:41.75 - (31.6)
2400m - 3:13.90 - (32.1)
2800m - 3:45.58 - (31.6)
3200m - 4:17.40 - (31.8)
3600m - 4:48.99 - (31.5)
4000m - 5:20.99 - (32.0)
4400m - 5:52.67 - (31.6)
4800m - 6:24.87 - (32.1)
5200m - 6:56.52 - (31.6)
5600m - 7:27.92 - (31.4)
6000m - 7:59.32 - (31.3)
6400m - 8:30.94 - (31.6)
6800m - 9:01.95 - (31.0)
7200m - 9:32.80 - (30.8)
7600m - 10:03.46 - (30.6)
8000m - 10:34.41 - (30.9)
8400m - 11:05.37 - (30.9)
8800m - 11:36.50 - (31.1)
9200m - 12:07.58 - (31.0)
9600m - 12:38.79 - (31.2)
10000m - 13:09.26 - (30.4)
15.63 15
6 58 Ryosuke  Tsuchiya JPN JPN 13:11.88400m - 35.85 - (35.8)
800m - 1:07.24 - (31.3)
1200m - 1:39.01 - (31.7)
1600m - 2:10.65 - (31.6)
2000m - 2:42.41 - (31.7)
2400m - 3:13.80 - (31.3)
2800m - 3:45.54 - (31.7)
3200m - 4:17.17 - (31.6)
3600m - 4:48.93 - (31.7)
4000m - 5:20.26 - (31.3)
4400m - 5:51.90 - (31.6)
4800m - 6:23.25 - (31.3)
5200m - 6:54.65 - (31.3)
5600m - 7:25.90 - (31.2)
6000m - 7:57.12 - (31.2)
6400m - 8:28.22 - (31.1)
6800m - 8:59.32 - (31.1)
7200m - 9:30.35 - (31.0)
7600m - 10:01.57 - (31.2)
8000m - 10:32.87 - (31.2)
8400m - 11:04.37 - (31.5)
8800m - 11:35.74 - (31.3)
9200m - 12:07.32 - (31.5)
9600m - 12:39.27 - (31.9)
10000m - 13:11.88 - (32.6)
18.25 11
7 130 Danila  Semerikov RUS RUS 13:11.96400m - 36.98 - (36.9)
800m - 1:08.98 - (32.0)
1200m - 1:41.11 - (32.1)
1600m - 2:13.00 - (31.8)
2000m - 2:44.75 - (31.7)
2400m - 3:16.96 - (32.2)
2800m - 3:48.71 - (31.7)
3200m - 4:20.44 - (31.7)
3600m - 4:52.20 - (31.7)
4000m - 5:23.97 - (31.7)
4400m - 5:55.84 - (31.8)
4800m - 6:27.51 - (31.6)
5200m - 6:58.94 - (31.4)
5600m - 7:30.32 - (31.3)
6000m - 8:01.68 - (31.3)
6400m - 8:32.99 - (31.3)
6800m - 9:04.30 - (31.3)
7200m - 9:35.72 - (31.4)
7600m - 10:07.45 - (31.7)
8000m - 10:38.33 - (30.8)
8400m - 11:09.05 - (30.7)
8800m - 11:39.86 - (30.8)
9200m - 12:11.32 - (31.4)
9600m - 12:41.74 - (30.4)
10000m - 13:11.96 - (30.2)
18.33 9
8 4 Bart  Swings BEL BEL 13:12.32400m - 35.10 - (35.1)
800m - 1:07.05 - (31.9)
1200m - 1:38.89 - (31.8)
1600m - 2:10.77 - (31.8)
2000m - 2:42.29 - (31.5)
2400m - 3:14.09 - (31.8)
2800m - 3:45.62 - (31.5)
3200m - 4:17.46 - (31.8)
3600m - 4:49.00 - (31.5)
4000m - 5:20.82 - (31.8)
4400m - 5:52.31 - (31.4)
4800m - 6:23.93 - (31.6)
5200m - 6:55.21 - (31.2)
5600m - 7:26.77 - (31.5)
6000m - 7:58.12 - (31.3)
6400m - 8:29.34 - (31.2)
6800m - 9:00.57 - (31.2)
7200m - 9:31.72 - (31.1)
7600m - 10:02.99 - (31.2)
8000m - 10:34.01 - (31.0)
8400m - 11:05.38 - (31.3)
8800m - 11:36.94 - (31.5)
9200m - 12:08.53 - (31.5)
9600m - 12:40.33 - (31.8)
10000m - 13:12.32 - (31.9)
18.69 7
9 102 Simen Spieler  Nilsen NOR NOR 13:12.96400m - 35.48 - (35.4)
800m - 1:07.59 - (32.1)
1200m - 1:39.60 - (32.0)
1600m - 2:11.53 - (31.9)
2000m - 2:43.49 - (31.9)
2400m - 3:15.52 - (32.0)
2800m - 3:47.56 - (32.0)
3200m - 4:19.43 - (31.8)
3600m - 4:51.17 - (31.7)
4000m - 5:22.61 - (31.4)
4400m - 5:54.13 - (31.5)
4800m - 6:25.48 - (31.3)
5200m - 6:57.62 - (32.1)
5600m - 7:29.46 - (31.8)
6000m - 8:01.00 - (31.5)
6400m - 8:32.33 - (31.3)
6800m - 9:03.58 - (31.2)
7200m - 9:34.60 - (31.0)
7600m - 10:05.48 - (30.8)
8000m - 10:36.55 - (31.0)
8400m - 11:07.80 - (31.2)
8800m - 11:39.20 - (31.4)
9200m - 12:10.83 - (31.6)
9600m - 12:42.33 - (31.5)
10000m - 13:12.96 - (30.6)
19.33 6
10 137 Nils  van der Poel SWE SWE 13:15.52400m - 35.11 - (35.1)
800m - 1:06.44 - (31.3)
1200m - 1:37.87 - (31.4)
1600m - 2:08.77 - (30.9)
2000m - 2:39.71 - (30.9)
2400m - 3:10.60 - (30.8)
2800m - 3:41.58 - (30.9)
3200m - 4:12.65 - (31.0)
3600m - 4:43.90 - (31.2)
4000m - 5:14.95 - (31.0)
4400m - 5:46.22 - (31.2)
4800m - 6:17.47 - (31.2)
5200m - 6:48.77 - (31.2)
5600m - 7:20.12 - (31.3)
6000m - 7:51.72 - (31.6)
6400m - 8:23.53 - (31.8)
6800m - 8:55.61 - (32.0)
7200m - 9:27.84 - (32.2)
7600m - 10:00.45 - (32.6)
8000m - 10:33.20 - (32.7)
8400m - 11:05.90 - (32.6)
8800m - 11:38.67 - (32.7)
9200m - 12:11.37 - (32.7)
9600m - 12:43.70 - (32.3)
10000m - 13:15.52 - (31.8)
21.89 5
11 91 Simon  Schouten NED NED 13:20.91400m - 35.40 - (35.3)
800m - 1:06.87 - (31.4)
1200m - 1:38.44 - (31.5)
1600m - 2:09.86 - (31.4)
2000m - 2:41.36 - (31.5)
2400m - 3:12.47 - (31.1)
2800m - 3:43.76 - (31.2)
3200m - 4:15.09 - (31.3)
3600m - 4:46.12 - (31.0)
4000m - 5:17.44 - (31.3)
4400m - 5:48.90 - (31.4)
4800m - 6:20.19 - (31.2)
5200m - 6:51.51 - (31.3)
5600m - 7:22.82 - (31.3)
6000m - 7:54.50 - (31.6)
6400m - 8:26.30 - (31.8)
6800m - 8:58.33 - (32.0)
7200m - 9:30.41 - (32.0)
7600m - 10:02.67 - (32.2)
8000m - 10:35.05 - (32.3)
8400m - 11:07.78 - (32.7)
8800m - 11:40.99 - (33.2)
9200m - 12:14.55 - (33.5)
9600m - 12:47.98 - (33.4)
10000m - 13:20.91 - (32.9)
27.28 4
12 97 Sindre  Henriksen NOR NOR 13:21.28400m - 34.95 - (34.9)
800m - 1:06.33 - (31.3)
1200m - 1:38.27 - (31.9)
1600m - 2:10.06 - (31.7)
2000m - 2:41.80 - (31.7)
2400m - 3:13.34 - (31.5)
2800m - 3:45.25 - (31.9)
3200m - 4:17.10 - (31.8)
3600m - 4:48.76 - (31.6)
4000m - 5:20.41 - (31.6)
4400m - 5:51.91 - (31.5)
4800m - 6:23.55 - (31.6)
5200m - 6:55.18 - (31.6)
5600m - 7:26.72 - (31.5)
6000m - 7:58.30 - (31.5)
6400m - 8:29.91 - (31.6)
6800m - 9:01.80 - (31.8)
7200m - 9:34.15 - (32.3)
7600m - 10:06.57 - (32.4)
8000m - 10:39.04 - (32.4)
8400m - 11:11.72 - (32.6)
8800m - 11:44.24 - (32.5)
9200m - 12:16.40 - (32.1)
9600m - 12:48.57 - (32.1)
10000m - 13:21.28 - (32.7)
27.65 3
13 42 Riccardo  Bugari ITA ITA 13:23.94400m - 35.59 - (35.5)
800m - 1:07.06 - (31.4)
1200m - 1:39.02 - (31.9)
1600m - 2:11.06 - (32.0)
2000m - 2:42.71 - (31.6)
2400m - 3:14.79 - (32.0)
2800m - 3:46.91 - (32.1)
3200m - 4:18.80 - (31.8)
3600m - 4:50.67 - (31.8)
4000m - 5:22.60 - (31.9)
4400m - 5:54.41 - (31.8)
4800m - 6:26.26 - (31.8)
5200m - 6:58.29 - (32.0)
5600m - 7:30.48 - (32.1)
6000m - 8:02.38 - (31.8)
6400m - 8:34.38 - (32.0)
6800m - 9:06.32 - (31.9)
7200m - 9:38.41 - (32.0)
7600m - 10:10.41 - (32.0)
8000m - 10:42.49 - (32.0)
8400m - 11:14.62 - (32.1)
8800m - 11:47.05 - (32.4)
9200m - 12:19.41 - (32.3)
9600m - 12:51.89 - (32.4)
10000m - 13:23.94 - (32.0)
30.31 2
14 16 Graeme  Fish CAN CAN 13:25.83400m - 36.56 - (36.5)
800m - 1:08.78 - (32.2)
1200m - 1:41.17 - (32.3)
1600m - 2:13.13 - (31.9)
2000m - 2:45.55 - (32.4)
2400m - 3:17.84 - (32.2)
2800m - 3:50.00 - (32.1)
3200m - 4:21.95 - (31.9)
3600m - 4:54.48 - (32.5)
4000m - 5:26.33 - (31.8)
4400m - 5:58.50 - (32.1)
4800m - 6:30.69 - (32.1)
5200m - 7:03.09 - (32.3)
5600m - 7:35.08 - (31.9)
6000m - 8:07.01 - (31.9)
6400m - 8:38.69 - (31.6)
6800m - 9:10.44 - (31.7)
7200m - 9:42.12 - (31.6)
7600m - 10:13.62 - (31.5)
8000m - 10:44.98 - (31.3)
8400m - 11:16.81 - (31.8)
8800m - 11:48.60 - (31.7)
9200m - 12:20.81 - (32.2)
9600m - 12:53.37 - (32.5)
10000m - 13:25.83 - (32.4)
32.20 1
15 27 Sebastian  Druszkiewicz CZE CZE 13:25.92400m - 36.99 - (36.9)
800m - 1:09.17 - (32.1)
1200m - 1:40.89 - (31.7)
1600m - 2:12.36 - (31.4)
2000m - 2:44.04 - (31.6)
2400m - 3:15.62 - (31.5)
2800m - 3:47.21 - (31.5)
3200m - 4:18.75 - (31.5)
3600m - 4:50.39 - (31.6)
4000m - 5:22.31 - (31.9)
4400m - 5:54.30 - (31.9)
4800m - 6:26.36 - (32.0)
5200m - 6:58.62 - (32.2)
5600m - 7:30.70 - (32.0)
6000m - 8:02.92 - (32.2)
6400m - 8:35.21 - (32.2)
6800m - 9:07.57 - (32.3)
7200m - 9:39.91 - (32.3)
7600m - 10:12.42 - (32.5)
8000m - 10:44.91 - (32.4)
8400m - 11:17.50 - (32.5)
8800m - 11:49.76 - (32.2)
9200m - 12:22.02 - (32.2)
9600m - 12:54.09 - (32.0)
10000m - 13:25.92 - (31.8)
32.29 0
16 55 Masahito  Obayashi JPN JPN 13:26.88400m - 36.49 - (36.4)
800m - 1:08.78 - (32.2)
1200m - 1:40.78 - (32.0)
1600m - 2:13.09 - (32.3)
2000m - 2:45.22 - (32.1)
2400m - 3:17.88 - (32.6)
2800m - 3:50.00 - (32.1)
3200m - 4:22.26 - (32.2)
3600m - 4:54.33 - (32.0)
4000m - 5:26.86 - (32.5)
4400m - 5:58.92 - (32.0)
4800m - 6:31.08 - (32.1)
5200m - 7:03.24 - (32.1)
5600m - 7:35.63 - (32.3)
6000m - 8:07.24 - (31.6)
6400m - 8:38.69 - (31.4)
6800m - 9:10.35 - (31.6)
7200m - 9:42.32 - (31.9)
7600m - 10:14.26 - (31.9)
8000m - 10:46.34 - (32.0)
8400m - 11:18.42 - (32.0)
8800m - 11:50.65 - (32.2)
9200m - 12:23.04 - (32.3)
9600m - 12:55.23 - (32.1)
10000m - 13:26.88 - (31.6)
33.25 0
17 107 Thomas  Søfteland NOR NOR 13:28.01400m - 35.98 - (35.9)
800m - 1:07.85 - (31.8)
1200m - 1:39.89 - (32.0)
1600m - 2:11.80 - (31.9)
2000m - 2:43.65 - (31.8)
2400m - 3:15.62 - (31.9)
2800m - 3:47.68 - (32.0)
3200m - 4:19.52 - (31.8)
3600m - 4:51.56 - (32.0)
4000m - 5:23.37 - (31.8)
4400m - 5:55.08 - (31.7)
4800m - 6:27.32 - (32.2)
5200m - 6:59.74 - (32.4)
5600m - 7:32.08 - (32.3)
6000m - 8:04.53 - (32.4)
6400m - 8:36.94 - (32.4)
6800m - 9:09.27 - (32.3)
7200m - 9:41.60 - (32.3)
7600m - 10:13.63 - (32.0)
8000m - 10:45.66 - (32.0)
8400m - 11:17.81 - (32.1)
8800m - 11:50.10 - (32.2)
9200m - 12:22.30 - (32.1)
9600m - 12:54.90 - (32.6)
10000m - 13:28.01 - (33.1)
34.38 0
18 61 Dmitry  Babenko KAZ KAZ 13:29.13400m - 35.91 - (35.9)
800m - 1:07.89 - (31.9)
1200m - 1:39.40 - (31.5)
1600m - 2:11.17 - (31.7)
2000m - 2:42.78 - (31.6)
2400m - 3:14.55 - (31.7)
2800m - 3:45.93 - (31.3)
3200m - 4:17.70 - (31.7)
3600m - 4:49.41 - (31.7)
4000m - 5:21.17 - (31.7)
4400m - 5:53.06 - (31.8)
4800m - 6:25.25 - (32.1)
5200m - 6:57.53 - (32.2)
5600m - 7:29.97 - (32.4)
6000m - 8:02.47 - (32.5)
6400m - 8:35.12 - (32.6)
6800m - 9:08.30 - (33.1)
7200m - 9:41.49 - (33.1)
7600m - 10:14.90 - (33.4)
8000m - 10:47.87 - (32.9)
8400m - 11:20.71 - (32.8)
8800m - 11:53.24 - (32.5)
9200m - 12:25.62 - (32.3)
9600m - 12:57.62 - (32.0)
10000m - 13:29.13 - (31.5)
35.50 0
19 142 Brian  Hansen USA USA 13:36.11400m - 34.86 - (34.8)
800m - 1:06.30 - (31.4)
1200m - 1:38.17 - (31.8)
1600m - 2:09.78 - (31.6)
2000m - 2:41.17 - (31.3)
2400m - 3:12.77 - (31.6)
2800m - 3:44.29 - (31.5)
3200m - 4:15.88 - (31.5)
3600m - 4:47.46 - (31.5)
4000m - 5:19.34 - (31.8)
4400m - 5:51.25 - (31.9)
4800m - 6:23.38 - (32.1)
5200m - 6:55.59 - (32.2)
5600m - 7:27.74 - (32.1)
6000m - 8:00.26 - (32.5)
6400m - 8:33.16 - (32.8)
6800m - 9:06.02 - (32.8)
7200m - 9:39.12 - (33.1)
7600m - 10:12.44 - (33.3)
8000m - 10:46.04 - (33.5)
8400m - 11:19.69 - (33.6)
8800m - 11:53.61 - (33.9)
9200m - 12:27.26 - (33.6)
9600m - 13:01.47 - (34.2)
10000m - 13:36.11 - (34.6)
42.48 0
20 119 Adrian  Wielgat POL POL 13:40.22400m - 36.45 - (36.4)
800m - 1:09.60 - (33.1)
1200m - 1:41.59 - (31.9)
1600m - 2:13.39 - (31.7)
2000m - 2:44.91 - (31.5)
2400m - 3:16.96 - (32.0)
2800m - 3:48.96 - (32.0)
3200m - 4:21.24 - (32.2)
3600m - 4:53.62 - (32.3)
4000m - 5:25.75 - (32.1)
4400m - 5:58.04 - (32.2)
4800m - 6:30.70 - (32.6)
5200m - 7:03.76 - (33.0)
5600m - 7:36.97 - (33.2)
6000m - 8:10.19 - (33.2)
6400m - 8:43.14 - (32.9)
6800m - 9:16.19 - (33.0)
7200m - 9:49.70 - (33.5)
7600m - 10:22.03 - (32.3)
8000m - 10:54.55 - (32.5)
8400m - 11:27.24 - (32.6)
8800m - 12:00.25 - (33.0)
9200m - 12:33.31 - (33.0)
9600m - 13:06.82 - (33.5)
10000m - 13:40.22 - (33.3)
46.59 0
21 111 Roland  Cieslak POL POL 13:42.89400m - 36.59 - (36.5)
800m - 1:09.85 - (33.2)
1200m - 1:42.89 - (33.0)
1600m - 2:15.93 - (33.0)
2000m - 2:49.12 - (33.1)
2400m - 3:22.28 - (33.1)
2800m - 3:55.47 - (33.1)
3200m - 4:29.12 - (33.6)
3600m - 5:02.48 - (33.3)
4000m - 5:36.31 - (33.8)
4400m - 6:08.87 - (32.5)
4800m - 6:41.42 - (32.5)
5200m - 7:14.41 - (32.9)
5600m - 7:47.50 - (33.0)
6000m - 8:20.93 - (33.4)
6400m - 8:53.94 - (33.0)
6800m - 9:25.61 - (31.6)
7200m - 9:57.71 - (32.1)
7600m - 10:29.59 - (31.8)
8000m - 11:02.35 - (32.7)
8400m - 11:33.91 - (31.5)
8800m - 12:05.68 - (31.7)
9200m - 12:38.87 - (33.1)
9600m - 13:11.64 - (32.7)
10000m - 13:42.89 - (31.2)
49.26 0
22 134 Ruslan  Zakharov RUS RUS 13:43.73400m - 38.03 - (38.0)
800m - 1:11.04 - (33.0)
1200m - 1:44.73 - (33.6)
1600m - 2:17.31 - (32.5)
2000m - 2:49.34 - (32.0)
2400m - 3:21.47 - (32.1)
2800m - 3:53.90 - (32.4)
3200m - 4:26.51 - (32.6)
3600m - 4:59.00 - (32.4)
4000m - 5:31.10 - (32.1)
4400m - 6:03.19 - (32.0)
4800m - 6:35.18 - (31.9)
5200m - 7:07.37 - (32.1)
5600m - 7:39.97 - (32.6)
6000m - 8:12.55 - (32.5)
6400m - 8:44.91 - (32.3)
6800m - 9:17.40 - (32.4)
7200m - 9:49.84 - (32.4)
7600m - 10:22.58 - (32.7)
8000m - 10:55.65 - (33.0)
8400m - 11:28.86 - (33.2)
8800m - 12:02.33 - (33.4)
9200m - 12:36.28 - (33.9)
9600m - 13:10.09 - (33.8)
10000m - 13:43.73 - (33.6)
50.10 0
23 68 Jaewon  Chung KOR KOR 13:44.71400m - 36.25 - (36.2)
800m - 1:06.96 - (30.7)
1200m - 1:38.29 - (31.3)
1600m - 2:09.74 - (31.4)
2000m - 2:41.08 - (31.3)
2400m - 3:12.39 - (31.3)
2800m - 3:43.98 - (31.5)
3200m - 4:15.61 - (31.6)
3600m - 4:47.07 - (31.4)
4000m - 5:18.61 - (31.5)
4400m - 5:50.43 - (31.8)
4800m - 6:22.18 - (31.7)
5200m - 6:54.10 - (31.9)
5600m - 7:26.09 - (31.9)
6000m - 7:58.22 - (32.1)
6400m - 8:30.06 - (31.8)
6800m - 9:02.20 - (32.1)
7200m - 9:35.62 - (33.4)
7600m - 10:10.47 - (34.8)
8000m - 10:46.47 - (36.0)
8400m - 11:22.07 - (35.6)
8800m - 11:57.48 - (35.4)
9200m - 12:33.68 - (36.1)
9600m - 13:09.51 - (35.8)
10000m - 13:44.71 - (35.2)
51.08 0
24 23 Alemasi  Kahanbai CHN CHN 13:45.54400m - 38.17 - (38.1)
800m - 1:12.07 - (33.8)
1200m - 1:45.32 - (33.2)
1600m - 2:18.72 - (33.4)
2000m - 2:51.63 - (32.9)
2400m - 3:24.36 - (32.7)
2800m - 3:57.40 - (33.0)
3200m - 4:30.14 - (32.7)
3600m - 5:02.85 - (32.7)
4000m - 5:36.16 - (33.3)
4400m - 6:09.50 - (33.3)
4800m - 6:43.07 - (33.5)
5200m - 7:15.85 - (32.7)
5600m - 7:48.27 - (32.4)
6000m - 8:20.38 - (32.1)
6400m - 8:52.42 - (32.0)
6800m - 9:24.79 - (32.3)
7200m - 9:57.27 - (32.4)
7600m - 10:29.74 - (32.4)
8000m - 11:02.61 - (32.8)
8400m - 11:34.75 - (32.1)
8800m - 12:07.17 - (32.4)
9200m - 12:40.07 - (32.9)
9600m - 13:13.10 - (33.0)
10000m - 13:45.54 - (32.4)
51.91 0
25 28 Viktor Hald  Thorup DEN DEN DNF400m - 37.50 - (37.5)
800m - 1:09.18 - (31.6)
1200m - 1:41.18 - (32.0)
1600m - 2:13.07 - (31.8)
2000m - 2:44.83 - (31.7)
2400m - 3:16.44 - (31.6)
2800m - 3:48.20 - (31.7)
3200m - 4:19.62 - (31.4)
3600m - 4:51.10 - (31.4)
4000m - 5:22.59 - (31.4)
4400m - 5:54.13 - (31.5)
4800m - 6:25.65 - (31.5)
5200m - 6:57.26 - (31.6)
5600m - 7:29.18 - (31.9)
6000m - 8:01.01 - (31.8)
6400m - 8:32.74 - (31.7)
6800m - 9:04.52 - (31.7)
7200m - 9:36.41 - (31.8)
7600m - 10:08.61 - (32.2)
8000m - 10:41.24 - (32.6)
8400m - 11:14.25 - (33.0)
8800m - 11:48.00 - (33.7)
9200m - 12:23.25 - (35.2)
9600m - 12:59.52 - (36.2)
10000m - 13:37.93 - (38.4)
0
26 3 Linus  Heidegger AUT AUT DQ400m - 36.95 - (36.9)
800m - 1:09.76 - (32.8)
1200m - 1:42.18 - (32.4)
1600m - 2:13.53 - (31.3)
2000m - 2:45.25 - (31.7)
2400m - 3:16.98 - (31.7)
2800m - 3:48.59 - (31.6)
3200m - 4:20.20 - (31.6)
3600m - 4:52.23 - (32.0)
4000m - 5:24.30 - (32.0)
4400m - 5:56.45 - (32.1)
4800m - 6:28.40 - (31.9)
5200m - 7:00.08 - (31.6)
5600m - 7:31.76 - (31.6)
6000m - 8:03.45 - (31.6)
6400m - 8:35.26 - (31.8)
6800m - 9:07.19 - (31.9)
7200m - 9:39.48 - (32.2)
7600m - 10:11.97 - (32.4)
8000m - 10:44.42 - (32.4)
8400m - 11:17.36 - (32.9)
8800m - 11:50.28 - (32.9)
9200m - 12:23.18 - (32.8)
9600m - 12:56.11 - (32.9)
10000m - 13:29.27 - (33.1)
0
26 50 Seitaro  Ichinohe JPN JPN DQ400m - 36.50 - (36.5)
800m - 1:08.45 - (31.9)
1200m - 1:40.50 - (32.0)
1600m - 2:12.26 - (31.7)
2000m - 2:44.11 - (31.8)
2400m - 3:15.80 - (31.6)
2800m - 3:47.47 - (31.6)
3200m - 4:18.73 - (31.2)
3600m - 4:50.36 - (31.6)
4000m - 5:21.95 - (31.5)
4400m - 5:53.83 - (31.8)
4800m - 6:25.58 - (31.7)
5200m - 6:57.56 - (31.9)
5600m - 7:29.43 - (31.8)
6000m - 8:01.16 - (31.7)
6400m - 8:32.52 - (31.3)
6800m - 9:04.11 - (31.5)
7200m - 9:35.88 - (31.7)
7600m - 10:07.52 - (31.6)
8000m - 10:38.33 - (30.8)
8400m - 11:09.46 - (31.1)
8800m - 11:40.29 - (30.8)
9200m - 12:12.21 - (31.9)
9600m - 12:42.46 - (30.2)
10000m - 13:13.58 - (31.1)
0
26 131 Yevgeny  Seryaev RUS RUS DQ400m - 36.48 - (36.4)
800m - 1:07.79 - (31.3)
1200m - 1:38.78 - (30.9)
1600m - 2:10.41 - (31.6)
2000m - 2:42.00 - (31.5)
2400m - 3:13.00 - (31.0)
2800m - 3:44.28 - (31.2)
3200m - 4:16.79 - (32.5)
3600m - 4:48.72 - (31.9)
4000m - 5:20.90 - (32.1)
4400m - 5:53.32 - (32.4)
4800m - 6:25.95 - (32.6)
5200m - 6:58.79 - (32.8)
5600m - 7:31.79 - (33.0)
6000m - 8:04.78 - (32.9)
6400m - 8:38.14 - (33.3)
6800m - 9:11.63 - (33.4)
7200m - 9:45.74 - (34.1)
7600m - 10:20.74 - (35.0)
0